User: anonymous   Login
Location: Unspecified
(0.0000°N, 0.0000°E)
Time: 00:14:37
(UTC+00:00)
Language:

DSP F6R - Orbit

View from above orbital plane
View from above orbital plane
View from above satellite
View from above satellite

Ground track
Ground track

The orbit data is extracted from the following two-line orbital elements,

1 15453U 84129A   19145.73274282 -.00000122 +00000-0 +00000-0 0  9993
2 15453 015.3190 343.4994 0002565 005.2972 351.6623 00.98858492000546
Epoch (UTC): 25 May 2019 17:35:08
Eccentricity: 0.0002565
inclination: 15.3190°
perigee height: 36176 km
apogee height: 36198 km
right ascension of ascending node: 343.4994°
argument of perigee: 5.2972°
revolutions per day: 0.98858492
mean anomaly at epoch: 351.6623°
orbit number at epoch: 54

The dashed part of the orbit path shows where the satellite is in the earth's shadow,  

DLR